Tracking 20083 objects as of 12-Dec-2019
HD Live streaming from Space Station
objects crossing your sky now

COSMOS 2251 DEB

Track COSMOS 2251 DEB now!
10-day predictions


NORAD ID: 35707
Int'l Code: 1993-036AQC
Perigee: 527.0 km
Apogee: 546.0 km
Inclination: 74.0 °
Period: 95.2 minutes
Semi major axis: 6907 km
RCS: 0.0081 m2 (small)
Launch date: June 16, 1993
Source: Commonwealth of Independent States (former USSR) (CIS)
Launch site: PLESETSK MISSILE AND SPACE COMPLEX (PKMTR)

Note: This is SATELLITE DEBRIS
aabbcc
Your satellite tracking list
Your tracking list is empty




NASA's NSSDC Master Catalog

Two Line Element Set (TLE):
1 35707U 93036AQC 19345.46651274  .00015991  00000-0  92326-3 0  9990
2 35707  74.0018 350.3609 0013721 238.8481 121.1367 15.12244836565258
Source of the keplerian elements: AFSPC